Location: Gorze? G�rny
(49.8500°N, 19.5000°E)
Time: 05:27:43
(UTC+00:00)

Cosmos 372 Rocket - Pass Details

Date: 13 May 2021
Orbit: 738 x 768 km, 74.1° (Epoch: 20 June)

Event Time Altitude Azimuth Distance (km) Brightness Sun altitude
Exits shadow 21:44:26 40° 198° (SSW) 1,075 4.3 -20.5°
Maximum altitude 21:46:17 86° 114° (ESE) 747 3.8 -20.6°
Drops below altitude 10° 21:51:24 10° 25° (NNE) 2,258 7.2 -20.8°
Sets 21:53:46 0° 25° (NNE) 3,188 8.1 -20.8°
